Powrót do katalogu

ONEWEB-0569

AktywnyŁącznośćPO
NORAD 55148·PAYLOAD·🇬🇧 United Kingdom

Wystrzelony Jan 10, 2023 z Cape Canaveral Space Force Station

Loading…

Następne Przeloty (najbliższe 24 godziny)

TLE

ŚwieżeSource: CelesTrak SupGP

Epoka: Sep 14, 2026, 12:55 UTC

1 55148C 23004J   26257.53833750  .00003566  00000+0  97771-2 0  2577
2 55148  87.8918 302.4501 0001617  70.1804  31.7229 13.13463546    17

Śledź ONEWEB-0569 w czasie rzeczywistym z AllMySat

Download on the App Store